Location: Unspecified
(0.0000°N, 0.0000°E)
Time: 02:16:04
(UTC+00:00)

Envisat - Pass Details

Date: 03 March 2021
Orbit: 764 x 766 km, 98.1° (Epoch: 24 February)

Event Time Altitude Azimuth Distance (km) Brightness Sun altitude
Rises 05:10:46 0° 14° (NNE) 3,214 6.3 -15.2°
Reaches altitude 10° 05:13:04 10° 15° (NNE) 2,291 5.6 -14.6°
Maximum altitude 05:18:07 81° 102° (ESE) 777 3.1 -13.4°
Drops below altitude 10° 05:23:12 10° 189° (S) 2,302 5.5 -12.1°
Sets 05:25:30 0° 190° (S) 3,230 6.2 -11.5°
